| Date | Temp | Humidity | Rainfall | Dew Point | Wind Direction | Wind Speed | Wind Pressure | Condition | Visibility |
|---|---|---|---|---|---|---|---|---|---|
| 2025-05-26 10:58:30 | 28 | 89 | 26 | 250 | 9.5 | 1010 | Showers | 09 km | |
| 2025-05-26 10:01:14 | 32 | 70 | 26 | 110 | 7.6 | 1010 | Partly Cloudy (Day) | 20 km | |
| 2025-05-26 09:00:08 | 30 | 79 | 26 | 210 | 5.7 | 1010 | Partly Cloudy (Day) | 20 km | |
| 2025-05-26 07:59:38 | 28 | 87 | 26 | 140 | 3.8 | 1010 | Partly Cloudy (Day) | 15KM | |
| 2025-05-26 07:07:05 | 27 | 92 | 26 | 120 | 3.8 | 1009 | Partly Cloudy (Day) | 26KM | |
| 2025-05-26 06:01:34 | 27 | 94 | 26 | 110 | 1.9 | 1009 | Partly Cloudy (Day) | 10KM | |
| 2025-05-26 05:05:34 | 27 | 93 | 26 | 230 | 5.7 | 1009 | Partly Cloudy (Night) | 10KM | |
| 2025-05-26 04:38:39 | 27 | 92 | 26 | 190 | 7.6 | 1008 | Partly Cloudy (Night) | 10KM | |
| 2025-05-26 03:02:56 | 27 | 93 | 26 | 180 | 3.8 | 1009 | Partly Cloudy (Night) | 10KM | |
| 2025-05-26 01:59:01 | 27 | 93 | 26 | 190 | 3.8 | 1009 | Partly Cloudy (Night) | 10 KM | |
| 2025-05-26 00:59:01 | 28 | 91 | 26 | 210 | 3.8 | 1010 | Partly Cloudy (Night) | 10 KM | |
| 2025-05-25 23:58:07 | 28 | 89 | 26 | 230 | 1.9 | 1010 | Partly Cloudy (Night) | 10 KM | |
| 2025-05-25 22:58:07 | 28 | 87 | 26 | 200 | 3.8 | 1010 | Partly Cloudy (Night) | 10 KM | |
| 2025-05-25 21:57:23 | 28 | 86 | 26 | 050 | 3.8 | 1010 | Partly Cloudy (Night) | 10 KM | |
| 2025-05-25 21:00:14 | 29 | 85 | 26 | 080 | 3.8 | 1010 | Partly Cloudy (Night) | 10 km | |
| 2025-05-25 19:57:44 | 30 | 79 | 26 | 360 | 3.8 | 1009 | Partly Cloudy (Night) | 10 km | |
| 2025-05-25 18:59:52 | 30 | 78 | 25 | 350 | 7.6 | 1008 | Partly Cloudy (Night) | 10 km | |
| 2025-05-25 17:59:08 | 31 | 73 | 25 | 350 | 9.5 | 1007 | Partly Cloudy (Night) | 15 km | |
| 2025-05-25 17:02:02 | 31 | 69 | 25 | 350 | 13.3 | 1007 | Partly Cloudy (Day) | 20 km | |
| 2025-05-25 16:03:36 | 32 | 62 | 24 | 010 | 9.5 | 1007 | Partly Cloudy (Day) | 20 km | |
| 2025-05-25 14:59:41 | 32 | 65 | 24 | 350 | 13.3 | 1008 | Partly Cloudy (Day) | 20 km | |
| 2025-05-25 14:00:10 | 32 | 63 | 24 | 350 | 15.2 | 1009 | Partly Cloudy (Day) | 20 km | |
| 2025-05-25 13:03:16 | 32 | 63 | 24 | 320 | 15.2 | 1009 | Partly Cloudy (Day) | 20KM | |
| 2025-05-25 12:04:42 | 32 | 62 | 24 | 350 | 11.4 | 1010 | Partly Cloudy (Day) | 20KM | |
| 2025-05-25 11:02:13 | 32 | 64 | 23 | 120 | 3.8 | 1010 | Partly Cloudy (Day) | 20KM |